Tracking 35334 objects as of 13-Sep-2026
HD Live streaming from Space Station
objects crossing your sky now

CZ-4C R/B


CZ-4C R/B is no longer on orbit


NORAD ID: 44210
Int'l Code: 2019-024D
Launch date: April 29, 2019
Source: People's Republic of China (PRC)
Launch site: Taiyaun Space Center, China (TSC)
Decay date: 2020-07-04

Note: This is a ROCKET BODY
Your satellite tracking list
Your tracking list is empty




NASA's NSSDC Master Catalog

Two Line Element Set (TLE):
1 44210U 19024D   20186.56923695  .13003435  26554-5  10235-3 0  9999
2 44210  97.4526 235.3237 0014644 240.8654 120.3552 16.51998157 67990
Source of the keplerian elements: AFSPC